GFSCGP_prec_prec_231.txt.gz
QPF
0.00 0.00 0.00 0.00 0.01 0.02 0.02 0.02 0.04 0.01 0.01 0.03 0.01 0.00 0.00 0.00 0.00 0.01 0.00 0.02 0.01 0.01 0.00 0.00 0.00 0.00 0.00 0.00 0.00 0.00 0.00 0.00 0.00 0.00 0.00 0.00 0.00 0.00 0.00 0.00 0.00 0.00 0.00 0.00
0.00 0.00 0.00 0.00 0.00 0.01 0.05 0.05 0.02 0.02 0.06 0.16 0.07 0.02 0.00 0.00 0.02 0.01 0.01 0.00 0.02 0.02 0.00 0.00 0.00 0.00 0.00 0.00 0.00 0.00 0.00 0.00 0.00 0.00 0.00 0.00 0.00 0.00 0.00 0.00 0.00 0.00 0.00 0.00
0.00 0.00 0.00 0.00 0.00 0.02 0.04 0.07 0.04 0.02 0.02 0.16 0.22 0.15 0.02 0.03 0.02 0.03 0.04 0.04 0.05 0.04 0.02 0.00 0.00 0.00 0.00 0.00 0.00 0.00 0.00 0.00 0.00 0.00 0.00 0.00 0.00 0.00 0.00 0.00 0.00 0.00 0.00 0.00
0.00 0.00 0.00 0.00 0.00 0.04 0.07 0.04 0.04 0.04 0.04 0.08 0.17 0.25 0.02 0.01 0.04 0.01 0.04 0.05 0.01 0.01 0.01 0.00 0.00 0.00 0.00 0.00 0.00 0.00 0.00 0.00 0.00 0.00 0.00 0.00 0.00 0.00 0.00 0.00 0.00 0.00 0.00 0.00
0.01 0.00 0.00 0.00 0.00 0.01 0.06 0.05 0.10 0.10 0.11 0.11 0.10 0.24 0.04 0.01 0.05 0.03 0.01 0.03 0.02 0.00 0.01 0.00 0.00 0.00 0.00 0.00 0.00 0.00 0.00 0.00 0.00 0.00 0.00 0.00 0.00 0.00 0.00 0.00 0.00 0.00 0.01 0.03
0.00 0.00 0.00 0.00 0.00 0.01 0.01 0.06 0.10 0.20 0.25 0.26 0.05 0.10 0.05 0.00 0.01 0.01 0.00 0.00 0.01 0.02 0.01 0.00 0.00 0.00 0.00 0.00 0.00 0.00 0.00 0.00 0.00 0.02 0.01 0.00 0.00 0.00 0.02 0.08 0.13 0.16 0.14 0.12
0.00 0.00 0.00 0.00 0.03 0.09 0.08 0.10 0.15 0.19 0.23 0.08 0.00 0.04 0.05 0.00 0.00 0.00 0.00 0.00 0.00 0.01 0.04 0.03 0.03 0.02 0.01 0.00 0.01 0.01 0.01 0.03 0.16 0.17 0.17 0.19 0.19 0.22 0.20 0.26 0.25 0.19 0.11 0.02
0.01 0.00 0.02 0.02 0.09 0.18 0.18 0.10 0.07 0.07 0.04 0.04 0.03 0.10 0.03 0.00 0.00 0.00 0.00 0.00 0.00 0.02 0.03 0.08 0.09 0.07 0.07 0.04 0.03 0.05 0.08 0.09 0.19 0.44 0.42 0.40 0.48 0.37 0.36 0.27 0.19 0.10 0.02 0.00
0.06 0.02 0.02 0.03 0.16 0.35 0.25 0.22 0.08 0.02 0.02 0.04 0.08 0.13 0.04 0.00 0.00 0.00 0.01 0.03 0.02 0.04 0.06 0.06 0.09 0.08 0.09 0.11 0.12 0.11 0.07 0.10 0.16 0.18 0.21 0.20 0.24 0.26 0.19 0.09 0.04 0.01 0.00 0.00
0.06 0.06 0.00 0.04 0.09 0.28 0.49 0.20 0.11 0.07 0.02 0.02 0.06 0.16 0.11 0.03 0.00 0.00 0.00 0.00 0.01 0.02 0.03 0.05 0.08 0.11 0.12 0.10 0.08 0.16 0.22 0.14 0.10 0.11 0.15 0.19 0.20 0.16 0.09 0.02 0.00 0.00 0.00 0.00
0.09 0.06 0.00 0.00 0.01 0.08 0.31 0.48 0.28 0.06 0.01 0.02 0.05 0.14 0.13 0.06 0.01 0.01 0.00 0.00 0.00 0.03 0.05 0.08 0.16 0.19 0.21 0.20 0.20 0.31 0.33 0.27 0.21 0.22 0.20 0.20 0.16 0.08 0.02 0.00 0.00 0.00 0.00 0.00
0.07 0.07 0.01 0.00 0.00 0.00 0.12 0.17 0.25 0.09 0.03 0.03 0.07 0.08 0.10 0.05 0.02 0.02 0.03 0.03 0.05 0.06 0.08 0.12 0.13 0.21 0.28 0.37 0.44 0.38 0.40 0.41 0.29 0.21 0.14 0.07 0.02 0.01 0.00 0.00 0.00 0.00 0.00 0.00
0.03 0.07 0.07 0.00 0.00 0.01 0.05 0.01 0.04 0.02 0.01 0.03 0.09 0.11 0.20 0.12 0.10 0.10 0.11 0.09 0.12 0.11 0.10 0.16 0.23 0.25 0.27 0.32 0.34 0.39 0.39 0.30 0.22 0.16 0.07 0.01 0.00 0.00 0.00 0.00 0.00 0.00 0.00 0.00
0.03 0.13 0.20 0.14 0.06 0.05 0.02 0.00 0.07 0.07 0.02 0.03 0.09 0.13 0.24 0.25 0.22 0.22 0.16 0.16 0.16 0.18 0.19 0.25 0.28 0.31 0.34 0.33 0.32 0.29 0.22 0.17 0.10 0.03 0.01 0.00 0.00 0.00 0.00 0.00 0.00 0.00 0.00 0.00
0.05 0.08 0.07 0.12 0.12 0.05 0.01 0.00 0.01 0.02 0.06 0.06 0.07 0.13 0.16 0.20 0.24 0.25 0.22 0.21 0.25 0.25 0.25 0.27 0.29 0.26 0.19 0.16 0.15 0.14 0.09 0.05 0.02 0.00 0.00 0.00 0.00 0.00 0.00 0.00 0.00 0.00 0.00 0.00
0.01 0.04 0.03 0.02 0.08 0.04 0.00 0.00 0.01 0.05 0.16 0.06 0.05 0.11 0.09 0.08 0.06 0.10 0.13 0.13 0.14 0.12 0.13 0.15 0.15 0.13 0.08 0.05 0.04 0.03 0.02 0.01 0.00 0.00 0.00 0.00 0.00 0.00 0.00 0.00 0.00 0.00 0.00 0.00
0.01 0.03 0.02 0.02 0.04 0.00 0.00 0.00 0.02 0.03 0.01 0.02 0.02 0.02 0.06 0.07 0.03 0.01 0.00 0.00 0.00 0.00 0.01 0.02 0.01 0.01 0.00 0.00 0.01 0.01 0.00 0.00 0.00 0.00 0.00 0.00 0.00 0.00 0.00 0.00 0.00 0.00 0.00 0.00
0.01 0.02 0.02 0.00 0.00 0.00 0.00 0.00 0.00 0.00 0.00 0.00 0.00 0.00 0.00 0.01 0.01 0.01 0.00 0.00 0.00 0.00 0.00 0.00 0.00 0.00 0.00 0.00 0.00 0.00 0.00 0.00 0.00 0.00 0.00 0.00 0.00 0.00 0.00 0.00 0.00 0.00 0.00 0.00
0.01 0.04 0.02 0.00 0.00 0.00 0.00 0.00 0.00 0.00 0.00 0.00 0.00 0.00 0.00 0.00 0.00 0.00 0.00 0.00 0.00 0.00 0.00 0.00 0.00 0.00 0.00 0.00 0.00 0.00 0.00 0.00 0.00 0.00 0.00 0.00 0.00 0.00 0.00 0.00 0.00 0.00 0.00 0.00
0.00 0.02 0.03 0.00 0.00 0.00 0.00 0.00 0.00 0.00 0.00 0.00 0.00 0.00 0.00 0.00 0.00 0.00 0.00 0.00 0.00 0.00 0.00 0.00 0.00 0.00 0.00 0.00 0.00 0.00 0.00 0.00 0.00 0.00 0.00 0.00 0.00 0.00 0.00 0.00 0.00 0.00 0.00 0.00
0.00 0.00 0.01 0.00 0.00 0.00 0.00 0.00 0.00 0.00 0.00 0.00 0.00 0.00 0.00 0.00 0.00 0.00 0.00 0.00 0.00 0.00 0.00 0.00 0.00 0.00 0.00 0.00 0.00 0.00 0.00 0.00 0.00 0.00 0.00 0.00 0.00 0.00 0.00 0.00 0.00 0.00 0.00 0.00
0.00 0.00 0.00 0.00 0.00 0.00 0.00 0.00 0.00 0.00 0.00 0.00 0.00 0.00 0.00 0.00 0.00 0.00 0.00 0.00 0.00 0.00 0.00 0.00 0.00 0.00 0.00 0.00 0.00 0.00 0.00 0.00 0.00 0.00 0.00 0.00 0.00 0.00 0.00 0.00 0.00 0.00 0.00 0.00
0.00 0.00 0.00 0.00 0.00 0.00 0.00 0.00 0.00 0.00 0.00 0.00 0.00 0.00 0.00 0.00 0.00 0.00 0.00 0.00 0.00 0.00 0.00 0.00 0.00 0.00 0.00 0.00 0.00 0.00 0.01 0.01 0.01 0.02 0.01 0.00 0.00 0.00 0.00 0.00 0.00 0.00 0.00 0.00
0.00 0.00 0.00 0.00 0.00 0.00 0.00 0.00 0.00 0.00 0.00 0.00 0.00 0.00 0.00 0.00 0.00 0.00 0.00 0.00 0.00 0.00 0.00 0.00 0.00 0.00 0.00 0.00 0.00 0.00 0.01 0.01 0.01 0.02 0.01 0.01 0.00 0.00 0.00 0.00 0.00 0.00 0.00 0.00
0.00 0.00 0.00 0.00 0.00 0.00 0.00 0.00 0.00 0.00 0.00 0.00 0.00 0.00 0.00 0.00 0.00 0.00 0.00 0.00 0.00 0.00 0.00 0.00 0.00 0.00 0.00 0.00 0.00 0.00 0.00 0.02 0.04 0.04 0.01 0.00 0.00 0.00 0.00 0.00 0.00 0.00 0.00 0.00
0.00 0.00 0.00 0.00 0.00 0.00 0.00 0.00 0.00 0.00 0.00 0.00 0.00 0.00 0.00 0.00 0.00 0.00 0.00 0.00 0.00 0.00 0.00 0.00 0.00 0.00 0.00 0.00 0.00 0.00 0.01 0.04 0.04 0.01 0.00 0.00 0.00 0.00 0.00 0.00 0.00 0.00 0.00 0.00

GFSCGP_prec_prec_234.txt.gz
QPF
0.00 0.00 0.00 0.00 0.00 0.00 0.01 0.00 0.00 0.00 0.00 0.00 0.01 0.01 0.01 0.00 0.00 0.00 0.00 0.00 0.00 0.01 0.06 0.02 0.00 0.00 0.00 0.00 0.00 0.00 0.00 0.00 0.00 0.00 0.00 0.00 0.00 0.00 0.00 0.00 0.00 0.00 0.00 0.00
0.00 0.00 0.00 0.00 0.00 0.00 0.00 0.01 0.01 0.00 0.00 0.01 0.01 0.00 0.00 0.00 0.01 0.00 0.00 0.00 0.00 0.02 0.01 0.01 0.00 0.00 0.00 0.00 0.00 0.00 0.00 0.00 0.00 0.00 0.00 0.00 0.00 0.00 0.00 0.00 0.00 0.00 0.00 0.00
0.00 0.00 0.00 0.00 0.00 0.00 0.00 0.00 0.02 0.04 0.01 0.01 0.02 0.01 0.00 0.00 0.00 0.00 0.00 0.00 0.01 0.02 0.03 0.02 0.00 0.00 0.00 0.00 0.00 0.00 0.00 0.00 0.00 0.00 0.00 0.00 0.00 0.00 0.00 0.00 0.00 0.00 0.00 0.00
0.00 0.00 0.00 0.00 0.00 0.00 0.00 0.00 0.00 0.01 0.05 0.03 0.01 0.02 0.00 0.00 0.00 0.00 0.00 0.00 0.00 0.00 0.01 0.03 0.00 0.00 0.00 0.00 0.00 0.00 0.00 0.00 0.00 0.00 0.00 0.00 0.00 0.00 0.00 0.00 0.00 0.00 0.00 0.00
0.00 0.00 0.00 0.00 0.00 0.00 0.00 0.00 0.00 0.01 0.03 0.07 0.03 0.04 0.00 0.00 0.01 0.00 0.00 0.00 0.00 0.00 0.01 0.03 0.01 0.00 0.00 0.00 0.00 0.00 0.00 0.00 0.00 0.00 0.00 0.00 0.00 0.00 0.00 0.00 0.00 0.00 0.00 0.01
0.00 0.00 0.00 0.00 0.00 0.00 0.01 0.01 0.01 0.02 0.04 0.10 0.02 0.02 0.01 0.00 0.00 0.00 0.00 0.00 0.01 0.01 0.01 0.02 0.05 0.01 0.00 0.00 0.00 0.00 0.00 0.00 0.00 0.00 0.00 0.01 0.00 0.00 0.00 0.00 0.01 0.04 0.13 0.17
0.00 0.00 0.00 0.00 0.00 0.00 0.01 0.01 0.06 0.06 0.11 0.11 0.01 0.04 0.02 0.00 0.00 0.00 0.00 0.00 0.00 0.02 0.02 0.02 0.03 0.06 0.02 0.00 0.00 0.00 0.00 0.00 0.00 0.00 0.00 0.00 0.05 0.09 0.15 0.21 0.27 0.29 0.22 0.15
0.01 0.00 0.01 0.02 0.00 0.01 0.02 0.05 0.07 0.07 0.04 0.03 0.04 0.08 0.01 0.00 0.00 0.00 0.00 0.00 0.00 0.00 0.01 0.03 0.06 0.06 0.06 0.02 0.01 0.01 0.01 0.01 0.01 0.01 0.07 0.26 0.43 0.51 0.54 0.50 0.39 0.29 0.20 0.09
0.02 0.01 0.00 0.01 0.01 0.05 0.05 0.03 0.04 0.08 0.03 0.04 0.03 0.02 0.01 0.00 0.00 0.00 0.00 0.00 0.00 0.00 0.01 0.02 0.06 0.14 0.12 0.08 0.07 0.05 0.03 0.04 0.06 0.12 0.23 0.33 0.38 0.45 0.41 0.31 0.19 0.12 0.05 0.01
0.03 0.08 0.00 0.01 0.01 0.00 0.05 0.08 0.22 0.23 0.12 0.03 0.00 0.00 0.00 0.05 0.01 0.01 0.00 0.00 0.00 0.00 0.00 0.02 0.05 0.10 0.21 0.15 0.13 0.14 0.20 0.25 0.18 0.23 0.26 0.27 0.33 0.32 0.22 0.16 0.08 0.03 0.01 0.00
0.02 0.04 0.00 0.00 0.00 0.01 0.06 0.15 0.29 0.24 0.07 0.02 0.01 0.00 0.01 0.07 0.08 0.03 0.03 0.01 0.00 0.00 0.00 0.01 0.04 0.08 0.12 0.20 0.18 0.10 0.10 0.30 0.53 0.51 0.48 0.30 0.19 0.18 0.14 0.08 0.02 0.00 0.00 0.00
0.03 0.04 0.01 0.00 0.00 0.00 0.03 0.15 0.17 0.37 0.17 0.02 0.02 0.01 0.00 0.04 0.10 0.05 0.04 0.04 0.01 0.02 0.04 0.05 0.05 0.07 0.11 0.21 0.26 0.22 0.30 0.34 0.43 0.45 0.48 0.34 0.23 0.14 0.06 0.01 0.00 0.00 0.00 0.00
0.04 0.02 0.02 0.01 0.00 0.01 0.02 0.06 0.05 0.25 0.37 0.14 0.03 0.02 0.03 0.08 0.17 0.12 0.13 0.16 0.14 0.08 0.08 0.09 0.12 0.14 0.25 0.27 0.46 0.49 0.47 0.49 0.42 0.39 0.35 0.29 0.18 0.08 0.01 0.00 0.00 0.00 0.00 0.00
0.02 0.03 0.06 0.06 0.04 0.07 0.02 0.00 0.02 0.16 0.30 0.18 0.08 0.08 0.15 0.22 0.25 0.16 0.14 0.19 0.23 0.26 0.20 0.21 0.23 0.26 0.28 0.39 0.43 0.44 0.43 0.34 0.27 0.26 0.18 0.09 0.05 0.02 0.01 0.00 0.00 0.00 0.00 0.00
0.01 0.02 0.01 0.00 0.02 0.08 0.03 0.01 0.02 0.06 0.23 0.23 0.16 0.11 0.23 0.31 0.37 0.33 0.19 0.19 0.20 0.30 0.34 0.31 0.33 0.31 0.35 0.31 0.32 0.30 0.28 0.29 0.26 0.18 0.09 0.04 0.01 0.00 0.00 0.00 0.00 0.00 0.00 0.00
0.00 0.01 0.00 0.00 0.01 0.05 0.02 0.00 0.03 0.12 0.18 0.19 0.12 0.11 0.21 0.25 0.27 0.37 0.31 0.26 0.22 0.22 0.35 0.35 0.37 0.37 0.30 0.28 0.26 0.22 0.18 0.15 0.12 0.07 0.04 0.01 0.00 0.00 0.00 0.00 0.00 0.00 0.00 0.00
0.00 0.01 0.01 0.02 0.01 0.00 0.00 0.00 0.03 0.11 0.07 0.07 0.07 0.10 0.14 0.23 0.19 0.11 0.11 0.14 0.21 0.22 0.21 0.26 0.25 0.26 0.22 0.20 0.15 0.12 0.08 0.06 0.04 0.01 0.00 0.00 0.00 0.00 0.00 0.00 0.00 0.00 0.00 0.00
0.01 0.01 0.01 0.01 0.00 0.01 0.01 0.00 0.01 0.03 0.00 0.02 0.04 0.03 0.06 0.08 0.13 0.12 0.07 0.04 0.04 0.06 0.07 0.08 0.08 0.09 0.09 0.07 0.05 0.04 0.03 0.01 0.00 0.00 0.00 0.00 0.00 0.00 0.00 0.00 0.00 0.00 0.00 0.00
0.01 0.01 0.01 0.00 0.00 0.00 0.00 0.00 0.01 0.03 0.01 0.01 0.00 0.00 0.01 0.02 0.04 0.05 0.04 0.03 0.01 0.00 0.00 0.01 0.01 0.02 0.03 0.03 0.02 0.01 0.01 0.00 0.00 0.00 0.00 0.00 0.00 0.00 0.00 0.00 0.00 0.00 0.00 0.00
0.01 0.02 0.02 0.00 0.00 0.00 0.00 0.00 0.00 0.00 0.02 0.00 0.00 0.00 0.00 0.01 0.01 0.00 0.00 0.00 0.00 0.00 0.00 0.00 0.00 0.00 0.00 0.00 0.00 0.02 0.03 0.00 0.00 0.00 0.00 0.00 0.00 0.00 0.00 0.00 0.00 0.00 0.00 0.00
0.00 0.01 0.01 0.00 0.00 0.00 0.00 0.00 0.00 0.00 0.02 0.00 0.00 0.00 0.00 0.00 0.00 0.00 0.00 0.00 0.00 0.00 0.00 0.00 0.00 0.00 0.00 0.00 0.00 0.01 0.02 0.00 0.00 0.00 0.00 0.00 0.00 0.00 0.00 0.00 0.00 0.00 0.00 0.00
0.00 0.00 0.00 0.00 0.00 0.00 0.00 0.00 0.00 0.00 0.00 0.00 0.00 0.00 0.00 0.00 0.00 0.00 0.00 0.00 0.00 0.00 0.00 0.00 0.00 0.00 0.00 0.00 0.00 0.01 0.01 0.00 0.00 0.00 0.00 0.00 0.00 0.00 0.00 0.00 0.00 0.00 0.00 0.00
0.00 0.00 0.00 0.00 0.00 0.00 0.00 0.00 0.00 0.00 0.00 0.00 0.00 0.00 0.00 0.00 0.00 0.00 0.00 0.00 0.00 0.00 0.00 0.00 0.00 0.00 0.00 0.00 0.00 0.00 0.01 0.01 0.01 0.01 0.01 0.00 0.00 0.00 0.00 0.00 0.00 0.00 0.00 0.00
0.00 0.00 0.00 0.00 0.00 0.00 0.00 0.00 0.00 0.00 0.00 0.00 0.00 0.00 0.00 0.00 0.00 0.00 0.00 0.00 0.00 0.00 0.00 0.00 0.00 0.00 0.00 0.00 0.00 0.00 0.00 0.01 0.02 0.05 0.03 0.01 0.00 0.00 0.00 0.00 0.00 0.00 0.00 0.00
0.00 0.00 0.00 0.00 0.00 0.00 0.00 0.00 0.00 0.00 0.00 0.00 0.00 0.00 0.00 0.00 0.00 0.00 0.00 0.00 0.00 0.00 0.00 0.00 0.00 0.00 0.00 0.00 0.00 0.00 0.00 0.01 0.05 0.04 0.03 0.01 0.00 0.00 0.00 0.00 0.00 0.00 0.00 0.00
0.00 0.00 0.00 0.00 0.00 0.00 0.00 0.00 0.00 0.00 0.00 0.00 0.00 0.00 0.00 0.00 0.00 0.00 0.00 0.00 0.00 0.00 0.00 0.00 0.00 0.00 0.00 0.00 0.00 0.00 0.00 0.01 0.05 0.06 0.03 0.00 0.00 0.00 0.00 0.00 0.00 0.00 0.00 0.00

GFSCGP_prec_prec_237.txt.gz
QPF
0.00 0.00 0.00 0.00 0.00 0.00 0.00 0.00 0.00 0.00 0.00 0.00 0.00 0.00 0.00 0.00 0.00 0.00 0.00 0.00 0.00 0.00 0.00 0.00 0.01 0.00 0.00 0.00 0.00 0.00 0.00 0.00 0.00 0.00 0.00 0.00 0.00 0.00 0.00 0.00 0.00 0.00 0.00 0.00
0.00 0.00 0.00 0.00 0.00 0.00 0.00 0.00 0.00 0.00 0.00 0.00 0.00 0.00 0.00 0.00 0.00 0.00 0.00 0.00 0.00 0.00 0.00 0.00 0.01 0.00 0.00 0.00 0.00 0.00 0.00 0.00 0.00 0.00 0.00 0.00 0.00 0.00 0.00 0.00 0.00 0.00 0.00 0.00
0.00 0.00 0.00 0.00 0.00 0.00 0.00 0.00 0.00 0.00 0.00 0.00 0.00 0.00 0.00 0.00 0.00 0.00 0.00 0.00 0.00 0.00 0.00 0.00 0.00 0.00 0.00 0.00 0.00 0.00 0.00 0.00 0.00 0.00 0.00 0.00 0.00 0.00 0.00 0.00 0.00 0.00 0.00 0.00
0.00 0.00 0.00 0.00 0.00 0.00 0.00 0.00 0.00 0.00 0.00 0.00 0.01 0.01 0.00 0.00 0.00 0.00 0.00 0.00 0.00 0.00 0.01 0.00 0.01 0.00 0.00 0.00 0.00 0.00 0.00 0.00 0.00 0.00 0.00 0.00 0.00 0.00 0.00 0.00 0.00 0.00 0.00 0.00
0.00 0.00 0.00 0.00 0.00 0.00 0.00 0.00 0.00 0.00 0.00 0.01 0.00 0.02 0.00 0.00 0.00 0.00 0.00 0.00 0.00 0.00 0.01 0.01 0.01 0.01 0.01 0.00 0.00 0.00 0.00 0.00 0.00 0.00 0.00 0.00 0.00 0.00 0.00 0.00 0.00 0.00 0.00 0.00
0.00 0.00 0.00 0.00 0.00 0.00 0.00 0.01 0.01 0.01 0.01 0.02 0.00 0.01 0.00 0.00 0.00 0.00 0.00 0.00 0.00 0.00 0.01 0.01 0.00 0.01 0.00 0.00 0.00 0.00 0.00 0.00 0.00 0.00 0.00 0.00 0.00 0.00 0.00 0.00 0.00 0.01 0.01 0.03
0.00 0.00 0.00 0.00 0.00 0.00 0.01 0.03 0.02 0.01 0.02 0.01 0.00 0.00 0.00 0.00 0.00 0.00 0.00 0.00 0.00 0.00 0.00 0.00 0.00 0.00 0.00 0.00 0.00 0.00 0.00 0.00 0.00 0.00 0.00 0.01 0.01 0.01 0.01 0.01 0.03 0.07 0.12 0.13
0.00 0.00 0.00 0.02 0.01 0.01 0.02 0.07 0.04 0.02 0.01 0.01 0.02 0.03 0.00 0.00 0.00 0.00 0.00 0.00 0.00 0.00 0.00 0.00 0.00 0.01 0.01 0.01 0.00 0.00 0.00 0.00 0.00 0.00 0.00 0.00 0.01 0.04 0.08 0.15 0.25 0.31 0.28 0.24
0.00 0.00 0.00 0.00 0.00 0.03 0.09 0.05 0.07 0.13 0.01 0.01 0.01 0.00 0.00 0.00 0.00 0.00 0.00 0.00 0.00 0.00 0.02 0.01 0.00 0.01 0.01 0.07 0.06 0.01 0.00 0.00 0.00 0.00 0.01 0.03 0.08 0.15 0.28 0.41 0.46 0.41 0.27 0.14
0.01 0.02 0.00 0.00 0.00 0.01 0.02 0.01 0.05 0.10 0.11 0.03 0.00 0.00 0.00 0.00 0.00 0.00 0.00 0.00 0.00 0.00 0.01 0.00 0.00 0.00 0.06 0.13 0.11 0.15 0.10 0.07 0.02 0.03 0.10 0.19 0.35 0.50 0.61 0.52 0.41 0.27 0.18 0.12
0.01 0.05 0.00 0.00 0.01 0.02 0.07 0.07 0.06 0.06 0.04 0.08 0.05 0.03 0.00 0.00 0.00 0.00 0.00 0.00 0.00 0.00 0.01 0.00 0.00 0.01 0.03 0.15 0.20 0.15 0.23 0.27 0.29 0.23 0.25 0.42 0.46 0.44 0.38 0.30 0.23 0.15 0.08 0.03
0.01 0.04 0.01 0.00 0.00 0.00 0.02 0.02 0.08 0.13 0.09 0.12 0.08 0.03 0.01 0.00 0.00 0.00 0.01 0.02 0.02 0.00 0.00 0.00 0.00 0.00 0.02 0.04 0.16 0.29 0.22 0.23 0.36 0.53 0.55 0.55 0.46 0.40 0.34 0.22 0.10 0.05 0.02 0.01
0.01 0.02 0.02 0.00 0.00 0.00 0.00 0.00 0.03 0.09 0.19 0.25 0.29 0.12 0.04 0.03 0.01 0.03 0.02 0.04 0.07 0.06 0.01 0.00 0.00 0.00 0.03 0.05 0.10 0.23 0.30 0.38 0.45 0.44 0.48 0.48 0.42 0.30 0.21 0.13 0.05 0.02 0.01 0.01
0.03 0.02 0.02 0.02 0.00 0.02 0.02 0.00 0.01 0.11 0.24 0.31 0.29 0.17 0.13 0.12 0.11 0.13 0.14 0.10 0.15 0.18 0.14 0.09 0.05 0.05 0.06 0.14 0.19 0.26 0.34 0.35 0.40 0.43 0.36 0.28 0.25 0.18 0.12 0.05 0.02 0.02 0.01 0.00
0.01 0.01 0.01 0.00 0.00 0.02 0.04 0.05 0.03 0.06 0.19 0.27 0.20 0.21 0.21 0.31 0.30 0.29 0.31 0.29 0.23 0.23 0.23 0.23 0.22 0.21 0.21 0.24 0.42 0.44 0.34 0.35 0.38 0.35 0.36 0.31 0.20 0.08 0.03 0.02 0.01 0.01 0.00 0.00
0.00 0.02 0.00 0.00 0.00 0.01 0.02 0.02 0.01 0.03 0.05 0.04 0.10 0.13 0.18 0.36 0.34 0.37 0.44 0.45 0.34 0.33 0.30 0.29 0.33 0.39 0.35 0.37 0.35 0.36 0.40 0.36 0.37 0.34 0.28 0.16 0.07 0.02 0.02 0.01 0.01 0.00 0.00 0.00
0.01 0.02 0.01 0.00 0.00 0.00 0.01 0.01 0.03 0.04 0.05 0.06 0.08 0.12 0.09 0.28 0.36 0.38 0.39 0.47 0.44 0.40 0.39 0.38 0.37 0.46 0.44 0.41 0.36 0.34 0.33 0.32 0.23 0.14 0.09 0.04 0.02 0.02 0.01 0.00 0.00 0.00 0.00 0.00
0.02 0.02 0.02 0.01 0.00 0.00 0.00 0.00 0.03 0.03 0.03 0.06 0.12 0.15 0.05 0.15 0.28 0.32 0.32 0.30 0.34 0.36 0.40 0.45 0.39 0.40 0.43 0.36 0.28 0.20 0.16 0.13 0.08 0.04 0.02 0.01 0.01 0.00 0.00 0.00 0.00 0.00 0.00 0.00
0.02 0.02 0.02 0.01 0.00 0.00 0.00 0.00 0.00 0.04 0.06 0.02 0.06 0.08 0.05 0.07 0.10 0.12 0.19 0.21 0.19 0.15 0.18 0.26 0.30 0.25 0.23 0.18 0.14 0.11 0.08 0.04 0.02 0.01 0.00 0.00 0.00 0.00 0.00 0.00 0.00 0.00 0.00 0.00
0.00 0.01 0.02 0.01 0.00 0.00 0.00 0.00 0.00 0.00 0.05 0.01 0.02 0.03 0.03 0.04 0.02 0.01 0.02 0.05 0.05 0.06 0.04 0.04 0.05 0.07 0.06 0.06 0.06 0.03 0.01 0.00 0.00 0.00 0.00 0.00 0.00 0.00 0.00 0.00 0.00 0.00 0.00 0.00
0.00 0.01 0.01 0.00 0.00 0.00 0.00 0.00 0.00 0.01 0.03 0.00 0.01 0.00 0.00 0.00 0.00 0.00 0.00 0.00 0.00 0.01 0.03 0.03 0.05 0.06 0.05 0.02 0.01 0.01 0.00 0.00 0.00 0.00 0.00 0.00 0.00 0.00 0.00 0.00 0.00 0.00 0.00 0.00
0.00 0.00 0.00 0.00 0.00 0.00 0.00 0.00 0.00 0.01 0.00 0.00 0.00 0.00 0.00 0.00 0.00 0.00 0.00 0.00 0.00 0.00 0.00 0.00 0.01 0.03 0.04 0.04 0.01 0.02 0.01 0.00 0.00 0.00 0.00 0.00 0.00 0.00 0.00 0.00 0.00 0.00 0.00 0.00
0.00 0.00 0.00 0.00 0.00 0.00 0.00 0.00 0.00 0.00 0.00 0.00 0.00 0.00 0.00 0.00 0.00 0.00 0.00 0.00 0.00 0.00 0.00 0.00 0.00 0.00 0.01 0.02 0.02 0.02 0.02 0.01 0.03 0.01 0.00 0.00 0.00 0.00 0.00 0.00 0.00 0.00 0.00 0.00
0.00 0.00 0.00 0.00 0.00 0.00 0.00 0.00 0.00 0.00 0.00 0.00 0.00 0.00 0.00 0.00 0.00 0.00 0.00 0.00 0.00 0.00 0.00 0.00 0.00 0.00 0.00 0.00 0.01 0.01 0.01 0.01 0.01 0.02 0.02 0.01 0.00 0.00 0.00 0.00 0.00 0.00 0.00 0.00
0.00 0.00 0.00 0.00 0.00 0.00 0.00 0.00 0.00 0.00 0.00 0.00 0.00 0.00 0.00 0.00 0.00 0.00 0.00 0.00 0.00 0.00 0.00 0.00 0.00 0.00 0.00 0.00 0.00 0.00 0.00 0.01 0.03 0.05 0.01 0.00 0.01 0.01 0.00 0.00 0.00 0.00 0.00 0.00
0.00 0.00 0.00 0.00 0.00 0.00 0.00 0.00 0.00 0.00 0.00 0.00 0.00 0.00 0.00 0.00 0.00 0.00 0.00 0.00 0.00 0.00 0.00 0.00 0.00 0.00 0.00 0.00 0.00 0.00 0.00 0.00 0.02 0.02 0.02 0.02 0.01 0.00 0.00 0.00 0.00 0.00 0.00 0.00

GFSCGP_prec_prec_240.txt.gz
QPF
0.00 0.00 0.00 0.00 0.00 0.00 0.00 0.00 0.00 0.00 0.00 0.00 0.00 0.00 0.00 0.00 0.00 0.00 0.00 0.00 0.00 0.00 0.00 0.00 0.00 0.00 0.00 0.00 0.00 0.00 0.00 0.00 0.00 0.00 0.00 0.00 0.00 0.00 0.00 0.00 0.00 0.00 0.00 0.00
0.00 0.00 0.00 0.00 0.00 0.00 0.00 0.00 0.00 0.00 0.00 0.00 0.00 0.00 0.00 0.00 0.00 0.00 0.00 0.00 0.00 0.00 0.00 0.00 0.00 0.00 0.00 0.00 0.00 0.00 0.00 0.00 0.00 0.00 0.00 0.00 0.00 0.00 0.00 0.00 0.00 0.00 0.00 0.00
0.00 0.00 0.00 0.00 0.00 0.00 0.00 0.00 0.00 0.00 0.00 0.00 0.00 0.00 0.00 0.00 0.00 0.00 0.00 0.00 0.00 0.00 0.00 0.01 0.00 0.00 0.00 0.00 0.00 0.00 0.00 0.00 0.00 0.00 0.00 0.00 0.00 0.00 0.00 0.00 0.00 0.00 0.00 0.00
0.00 0.00 0.00 0.00 0.00 0.00 0.00 0.00 0.00 0.00 0.00 0.00 0.00 0.00 0.00 0.00 0.00 0.00 0.00 0.00 0.00 0.00 0.00 0.02 0.02 0.00 0.00 0.00 0.00 0.00 0.00 0.00 0.00 0.00 0.00 0.00 0.00 0.00 0.00 0.00 0.00 0.00 0.00 0.00
0.00 0.00 0.00 0.00 0.00 0.00 0.00 0.00 0.00 0.00 0.00 0.00 0.00 0.00 0.00 0.00 0.00 0.00 0.00 0.00 0.00 0.00 0.00 0.02 0.01 0.00 0.00 0.00 0.00 0.00 0.00 0.01 0.00 0.00 0.00 0.00 0.00 0.00 0.00 0.00 0.00 0.00 0.00 0.00
0.00 0.00 0.00 0.00 0.00 0.00 0.00 0.00 0.00 0.00 0.01 0.02 0.00 0.00 0.00 0.00 0.00 0.00 0.00 0.00 0.00 0.00 0.00 0.00 0.01 0.01 0.00 0.00 0.00 0.00 0.00 0.00 0.00 0.00 0.00 0.00 0.00 0.00 0.00 0.00 0.00 0.00 0.00 0.00
0.00 0.00 0.00 0.00 0.00 0.00 0.01 0.03 0.03 0.01 0.01 0.00 0.00 0.00 0.00 0.00 0.00 0.00 0.00 0.00 0.00 0.00 0.00 0.00 0.00 0.00 0.00 0.00 0.01 0.01 0.01 0.00 0.00 0.00 0.00 0.00 0.00 0.00 0.00 0.00 0.00 0.00 0.01 0.03
0.00 0.00 0.00 0.01 0.00 0.00 0.00 0.04 0.06 0.05 0.00 0.00 0.00 0.01 0.00 0.00 0.00 0.00 0.00 0.00 0.00 0.00 0.00 0.00 0.01 0.00 0.00 0.00 0.00 0.01 0.01 0.00 0.00 0.00 0.00 0.00 0.00 0.00 0.01 0.01 0.01 0.03 0.08 0.12
0.00 0.00 0.00 0.00 0.00 0.01 0.02 0.01 0.01 0.05 0.01 0.03 0.00 0.00 0.00 0.00 0.00 0.00 0.00 0.00 0.00 0.00 0.00 0.02 0.03 0.01 0.02 0.00 0.00 0.00 0.01 0.00 0.00 0.00 0.00 0.00 0.00 0.00 0.03 0.07 0.14 0.19 0.22 0.19
0.01 0.02 0.00 0.00 0.00 0.00 0.04 0.03 0.07 0.10 0.08 0.03 0.00 0.00 0.00 0.00 0.00 0.00 0.00 0.00 0.00 0.00 0.00 0.03 0.05 0.06 0.03 0.01 0.01 0.03 0.03 0.02 0.01 0.01 0.00 0.00 0.00 0.05 0.11 0.20 0.24 0.26 0.23 0.20
0.00 0.03 0.00 0.00 0.00 0.00 0.03 0.09 0.12 0.08 0.02 0.04 0.05 0.01 0.00 0.02 0.00 0.00 0.00 0.00 0.00 0.00 0.01 0.01 0.03 0.04 0.03 0.03 0.03 0.07 0.10 0.16 0.13 0.07 0.02 0.04 0.08 0.14 0.29 0.35 0.33 0.27 0.22 0.21
0.00 0.01 0.00 0.00 0.00 0.00 0.02 0.03 0.03 0.13 0.05 0.06 0.07 0.04 0.06 0.02 0.00 0.00 0.00 0.00 0.00 0.00 0.00 0.00 0.01 0.01 0.02 0.05 0.07 0.08 0.11 0.12 0.19 0.21 0.19 0.26 0.34 0.39 0.36 0.33 0.24 0.23 0.27 0.20
0.00 0.01 0.01 0.00 0.00 0.01 0.00 0.00 0.02 0.09 0.08 0.05 0.18 0.08 0.04 0.02 0.00 0.00 0.00 0.00 0.00 0.02 0.05 0.05 0.01 0.01 0.04 0.07 0.11 0.12 0.17 0.21 0.24 0.25 0.30 0.41 0.44 0.43 0.35 0.35 0.36 0.32 0.19 0.09
0.01 0.01 0.00 0.00 0.00 0.00 0.00 0.00 0.01 0.10 0.16 0.08 0.07 0.11 0.05 0.10 0.10 0.04 0.03 0.03 0.02 0.05 0.08 0.11 0.07 0.03 0.05 0.08 0.17 0.15 0.18 0.32 0.31 0.30 0.25 0.28 0.28 0.28 0.33 0.41 0.34 0.18 0.08 0.05
0.00 0.00 0.00 0.00 0.00 0.00 0.01 0.04 0.07 0.07 0.06 0.10 0.06 0.09 0.17 0.31 0.35 0.24 0.13 0.10 0.09 0.13 0.14 0.12 0.10 0.06 0.07 0.11 0.14 0.20 0.20 0.29 0.27 0.27 0.26 0.26 0.27 0.34 0.31 0.21 0.12 0.07 0.06 0.05
0.00 0.01 0.00 0.00 0.00 0.02 0.04 0.05 0.05 0.03 0.02 0.02 0.04 0.06 0.11 0.29 0.32 0.30 0.21 0.17 0.18 0.24 0.23 0.15 0.14 0.15 0.11 0.21 0.24 0.31 0.28 0.31 0.33 0.29 0.33 0.39 0.36 0.24 0.13 0.08 0.07 0.06 0.03 0.01
0.00 0.01 0.01 0.00 0.00 0.01 0.02 0.01 0.02 0.07 0.10 0.10 0.11 0.14 0.14 0.20 0.29 0.42 0.37 0.28 0.31 0.29 0.22 0.20 0.22 0.31 0.21 0.34 0.35 0.33 0.38 0.39 0.47 0.50 0.41 0.27 0.15 0.07 0.06 0.04 0.02 0.01 0.00 0.00
0.00 0.01 0.01 0.00 0.00 0.02 0.01 0.00 0.00 0.04 0.10 0.08 0.10 0.10 0.10 0.19 0.33 0.40 0.42 0.41 0.41 0.32 0.37 0.39 0.42 0.47 0.45 0.52 0.47 0.48 0.45 0.43 0.37 0.27 0.17 0.09 0.05 0.03 0.01 0.00 0.00 0.00 0.00 0.00
0.00 0.02 0.01 0.01 0.00 0.01 0.00 0.00 0.00 0.02 0.04 0.01 0.02 0.03 0.04 0.06 0.11 0.19 0.38 0.48 0.47 0.41 0.52 0.52 0.50 0.53 0.54 0.50 0.40 0.30 0.25 0.19 0.13 0.09 0.04 0.02 0.01 0.00 0.00 0.00 0.00 0.00 0.00 0.00
0.00 0.01 0.03 0.00 0.01 0.00 0.00 0.00 0.00 0.00 0.03 0.00 0.00 0.00 0.00 0.00 0.03 0.11 0.23 0.31 0.36 0.32 0.31 0.31 0.28 0.24 0.22 0.21 0.15 0.10 0.07 0.04 0.01 0.00 0.00 0.00 0.00 0.00 0.00 0.00 0.00 0.00 0.00 0.00
0.00 0.01 0.01 0.01 0.01 0.00 0.00 0.00 0.00 0.02 0.03 0.00 0.00 0.00 0.00 0.00 0.01 0.03 0.08 0.11 0.20 0.25 0.26 0.23 0.20 0.16 0.12 0.10 0.07 0.04 0.01 0.00 0.00 0.00 0.00 0.00 0.00 0.00 0.00 0.00 0.00 0.00 0.00 0.00
0.00 0.00 0.00 0.00 0.00 0.00 0.00 0.00 0.00 0.00 0.00 0.00 0.00 0.00 0.00 0.00 0.00 0.00 0.01 0.02 0.05 0.09 0.12 0.11 0.07 0.06 0.06 0.04 0.02 0.01 0.00 0.00 0.00 0.00 0.00 0.00 0.00 0.00 0.00 0.00 0.00 0.00 0.00 0.00
0.00 0.00 0.00 0.00 0.00 0.00 0.00 0.00 0.00 0.00 0.00 0.00 0.00 0.00 0.00 0.00 0.00 0.00 0.00 0.00 0.00 0.00 0.02 0.03 0.03 0.02 0.02 0.01 0.01 0.00 0.00 0.00 0.00 0.00 0.00 0.00 0.00 0.00 0.00 0.00 0.00 0.00 0.00 0.00
0.00 0.00 0.00 0.00 0.00 0.00 0.00 0.00 0.00 0.00 0.00 0.00 0.00 0.00 0.00 0.00 0.00 0.00 0.00 0.00 0.00 0.00 0.00 0.00 0.00 0.01 0.02 0.01 0.01 0.00 0.00 0.00 0.00 0.00 0.00 0.00 0.00 0.00 0.00 0.00 0.00 0.00 0.00 0.00
0.00 0.00 0.00 0.00 0.00 0.00 0.00 0.00 0.00 0.00 0.00 0.00 0.00 0.00 0.00 0.00 0.00 0.00 0.00 0.00 0.00 0.00 0.00 0.00 0.00 0.00 0.01 0.01 0.01 0.00 0.01 0.01 0.01 0.00 0.00 0.00 0.00 0.00 0.00 0.00 0.00 0.00 0.00 0.00
0.00 0.00 0.00 0.00 0.00 0.00 0.00 0.00 0.00 0.00 0.00 0.00 0.00 0.00 0.00 0.00 0.00 0.00 0.00 0.00 0.00 0.00 0.00 0.00 0.00 0.00 0.00 0.01 0.01 0.00 0.01 0.00 0.00 0.00 0.00 0.00 0.00 0.00 0.00 0.00 0.00 0.00 0.00 0.00

GFSCGP_prec_prec_246.txt.gz
QPF
0.00 0.00 0.00 0.00 0.00 0.00 0.00 0.00 0.00 0.00 0.00 0.00 0.00 0.00 0.00 0.00 0.00 0.00 0.00 0.00 0.00 0.00 0.00 0.00 0.00 0.00 0.04 0.01 0.00 0.00 0.01 0.02 0.01 0.02 0.01 0.00 0.00 0.00 0.00 0.00 0.00 0.00 0.00 0.00
0.00 0.00 0.00 0.00 0.00 0.00 0.00 0.00 0.00 0.00 0.00 0.00 0.00 0.00 0.00 0.00 0.00 0.00 0.00 0.00 0.00 0.00 0.00 0.00 0.00 0.00 0.01 0.00 0.00 0.00 0.01 0.02 0.02 0.03 0.02 0.00 0.00 0.00 0.00 0.00 0.00 0.00 0.00 0.00
0.00 0.00 0.00 0.00 0.00 0.00 0.00 0.00 0.00 0.00 0.00 0.00 0.00 0.00 0.00 0.00 0.00 0.00 0.00 0.00 0.00 0.00 0.00 0.00 0.00 0.00 0.02 0.01 0.01 0.01 0.01 0.01 0.02 0.02 0.01 0.01 0.01 0.00 0.00 0.00 0.00 0.00 0.00 0.00
0.00 0.00 0.00 0.00 0.00 0.00 0.00 0.00 0.00 0.00 0.00 0.00 0.00 0.00 0.00 0.00 0.00 0.00 0.00 0.00 0.00 0.00 0.00 0.00 0.00 0.00 0.02 0.03 0.03 0.02 0.01 0.00 0.00 0.00 0.01 0.03 0.01 0.00 0.00 0.00 0.00 0.00 0.00 0.00
0.00 0.00 0.00 0.00 0.00 0.00 0.00 0.00 0.00 0.00 0.00 0.00 0.00 0.00 0.00 0.00 0.00 0.00 0.00 0.00 0.00 0.00 0.00 0.00 0.00 0.00 0.01 0.05 0.06 0.06 0.02 0.00 0.00 0.00 0.01 0.03 0.01 0.00 0.00 0.00 0.00 0.00 0.00 0.00
0.00 0.00 0.00 0.00 0.00 0.00 0.00 0.00 0.00 0.00 0.00 0.00 0.00 0.00 0.00 0.00 0.00 0.00 0.00 0.00 0.00 0.00 0.00 0.00 0.00 0.00 0.00 0.03 0.05 0.09 0.06 0.02 0.00 0.00 0.02 0.01 0.01 0.01 0.00 0.00 0.00 0.00 0.00 0.00
0.00 0.00 0.00 0.00 0.00 0.00 0.00 0.00 0.00 0.00 0.00 0.00 0.00 0.00 0.00 0.00 0.00 0.00 0.00 0.00 0.00 0.00 0.00 0.00 0.00 0.00 0.01 0.01 0.04 0.05 0.11 0.08 0.02 0.00 0.01 0.01 0.02 0.01 0.00 0.00 0.00 0.00 0.00 0.00
0.00 0.00 0.00 0.00 0.00 0.00 0.00 0.01 0.08 0.05 0.00 0.00 0.00 0.00 0.00 0.00 0.00 0.00 0.00 0.00 0.00 0.00 0.00 0.00 0.00 0.00 0.02 0.03 0.04 0.04 0.06 0.07 0.03 0.01 0.02 0.01 0.02 0.01 0.00 0.00 0.00 0.00 0.00 0.00
0.00 0.00 0.00 0.00 0.00 0.00 0.00 0.00 0.03 0.14 0.01 0.01 0.00 0.00 0.00 0.00 0.00 0.00 0.00 0.00 0.00 0.00 0.00 0.00 0.00 0.00 0.00 0.01 0.03 0.06 0.07 0.08 0.05 0.03 0.01 0.01 0.01 0.01 0.01 0.01 0.00 0.00 0.00 0.00
0.00 0.00 0.00 0.00 0.00 0.00 0.00 0.00 0.05 0.05 0.04 0.02 0.00 0.00 0.00 0.00 0.00 0.00 0.00 0.00 0.00 0.00 0.00 0.00 0.00 0.00 0.00 0.00 0.02 0.03 0.05 0.05 0.03 0.06 0.04 0.02 0.01 0.01 0.03 0.06 0.04 0.03 0.02 0.01
0.00 0.00 0.00 0.00 0.00 0.00 0.00 0.00 0.03 0.02 0.03 0.08 0.03 0.00 0.00 0.00 0.00 0.00 0.00 0.00 0.00 0.00 0.00 0.00 0.00 0.00 0.00 0.00 0.01 0.05 0.03 0.02 0.03 0.03 0.04 0.04 0.05 0.10 0.11 0.12 0.10 0.06 0.07 0.09
0.00 0.00 0.00 0.00 0.00 0.00 0.00 0.00 0.04 0.08 0.05 0.03 0.05 0.02 0.00 0.00 0.00 0.00 0.00 0.00 0.00 0.00 0.00 0.00 0.00 0.00 0.00 0.00 0.03 0.01 0.02 0.04 0.03 0.02 0.02 0.06 0.13 0.16 0.20 0.24 0.21 0.17 0.18 0.20
0.00 0.00 0.00 0.00 0.00 0.00 0.00 0.00 0.03 0.09 0.06 0.04 0.09 0.02 0.00 0.00 0.00 0.00 0.00 0.00 0.00 0.00 0.00 0.00 0.00 0.01 0.02 0.03 0.05 0.04 0.03 0.03 0.03 0.03 0.03 0.07 0.17 0.31 0.34 0.28 0.21 0.22 0.27 0.36
0.00 0.00 0.00 0.00 0.00 0.00 0.00 0.00 0.00 0.09 0.12 0.05 0.02 0.04 0.00 0.01 0.02 0.01 0.01 0.01 0.00 0.00 0.00 0.01 0.01 0.02 0.03 0.04 0.07 0.08 0.03 0.04 0.05 0.08 0.06 0.10 0.19 0.28 0.34 0.33 0.29 0.37 0.43 0.38
0.00 0.00 0.00 0.00 0.00 0.00 0.00 0.00 0.00 0.05 0.09 0.09 0.04 0.07 0.10 0.14 0.17 0.10 0.07 0.02 0.02 0.03 0.04 0.05 0.04 0.05 0.05 0.06 0.10 0.16 0.14 0.09 0.12 0.12 0.23 0.22 0.20 0.27 0.33 0.43 0.45 0.39 0.27 0.21
0.00 0.00 0.00 0.00 0.00 0.00 0.00 0.00 0.00 0.02 0.02 0.02 0.02 0.03 0.06 0.06 0.08 0.05 0.06 0.04 0.04 0.07 0.07 0.08 0.06 0.08 0.08 0.10 0.15 0.22 0.27 0.16 0.23 0.19 0.25 0.26 0.38 0.41 0.46 0.46 0.37 0.25 0.17 0.11
0.00 0.00 0.00 0.00 0.00 0.00 0.00 0.00 0.00 0.03 0.05 0.10 0.13 0.14 0.12 0.11 0.10 0.17 0.13 0.09 0.09 0.08 0.08 0.08 0.08 0.10 0.11 0.14 0.17 0.26 0.19 0.14 0.22 0.19 0.31 0.43 0.50 0.48 0.42 0.30 0.21 0.13 0.07 0.05
0.00 0.00 0.00 0.00 0.00 0.00 0.00 0.00 0.00 0.02 0.01 0.08 0.11 0.10 0.12 0.27 0.20 0.18 0.17 0.16 0.15 0.13 0.09 0.08 0.12 0.22 0.18 0.22 0.15 0.11 0.16 0.18 0.24 0.32 0.37 0.41 0.41 0.28 0.17 0.12 0.07 0.04 0.03 0.01
0.00 0.00 0.00 0.00 0.00 0.00 0.00 0.00 0.00 0.00 0.01 0.01 0.01 0.01 0.02 0.08 0.06 0.09 0.20 0.26 0.27 0.26 0.20 0.16 0.24 0.28 0.21 0.22 0.15 0.14 0.23 0.26 0.27 0.31 0.29 0.19 0.10 0.07 0.07 0.06 0.04 0.02 0.00 0.00
0.00 0.00 0.01 0.00 0.00 0.00 0.00 0.00 0.00 0.00 0.00 0.00 0.00 0.00 0.00 0.00 0.06 0.18 0.23 0.23 0.22 0.28 0.29 0.28 0.30 0.26 0.18 0.20 0.15 0.12 0.15 0.16 0.18 0.16 0.09 0.06 0.06 0.05 0.04 0.02 0.00 0.00 0.00 0.00
0.00 0.01 0.01 0.00 0.00 0.00 0.00 0.00 0.00 0.00 0.00 0.00 0.00 0.00 0.00 0.01 0.17 0.26 0.24 0.20 0.20 0.21 0.26 0.29 0.30 0.26 0.25 0.26 0.14 0.13 0.14 0.11 0.08 0.05 0.06 0.04 0.02 0.00 0.00 0.00 0.00 0.00 0.00 0.00
0.00 0.00 0.00 0.00 0.00 0.00 0.00 0.00 0.00 0.00 0.00 0.00 0.00 0.00 0.00 0.00 0.02 0.11 0.16 0.16 0.16 0.17 0.23 0.23 0.17 0.18 0.22 0.22 0.06 0.06 0.04 0.01 0.00 0.00 0.00 0.00 0.00 0.00 0.00 0.00 0.00 0.00 0.00 0.00
0.00 0.00 0.00 0.00 0.00 0.00 0.00 0.00 0.00 0.00 0.00 0.00 0.00 0.00 0.00 0.00 0.00 0.01 0.03 0.05 0.06 0.08 0.10 0.15 0.07 0.04 0.03 0.01 0.00 0.00 0.00 0.00 0.00 0.00 0.00 0.00 0.00 0.00 0.00 0.00 0.00 0.00 0.00 0.00
0.00 0.00 0.00 0.00 0.00 0.00 0.00 0.00 0.00 0.00 0.00 0.00 0.00 0.00 0.00 0.00 0.00 0.00 0.00 0.00 0.01 0.03 0.05 0.08 0.04 0.01 0.00 0.00 0.00 0.00 0.00 0.00 0.00 0.00 0.00 0.00 0.00 0.00 0.00 0.00 0.00 0.00 0.00 0.00
0.00 0.00 0.00 0.00 0.00 0.00 0.00 0.00 0.00 0.00 0.00 0.00 0.00 0.00 0.00 0.00 0.00 0.00 0.00 0.00 0.00 0.01 0.01 0.04 0.04 0.02 0.00 0.00 0.00 0.00 0.00 0.00 0.00 0.00 0.00 0.00 0.00 0.00 0.00 0.00 0.00 0.00 0.00 0.00
0.00 0.00 0.00 0.00 0.00 0.00 0.00 0.00 0.00 0.00 0.00 0.00 0.00 0.00 0.00 0.00 0.00 0.00 0.00 0.00 0.00 0.01 0.01 0.01 0.01 0.01 0.00 0.00 0.00 0.00 0.00 0.00 0.00 0.00 0.00 0.00 0.00 0.00 0.00 0.00 0.00 0.00 0.00 0.00